Time,TemperatureF,DewpointF,PressureIn,WindDirection,WindDirectionDegrees,WindSpeedMPH,WindSpeedGustMPH,Humidity,HourlyPrecipIn,Conditions,Clouds,dailyrainin,SolarRadiationWatts/m^2,SoftwareType,DateUTC
2013-02-01 00:03:00,31.0,20.0,-100.00,ENE,57,6.0,16.0,64,0.00,,,0.08,0.000000,,2013-02-01 05:03:00,
2013-02-01 00:11:00,31.0,22.0,-100.00,NE,50,6.0,16.0,68,0.00,,,0.04,0.000000,,2013-02-01 05:11:00,
2013-02-01 00:32:00,31.0,22.0,-100.00,NE,50,6.0,16.0,68,0.00,,,0.04,0.000000,,2013-02-01 05:32:00,
2013-02-01 00:42:00,31.0,22.0,-100.00,NE,50,6.0,16.0,68,0.00,,,0.04,0.000000,,2013-02-01 05:42:00,
2013-02-01 00:52:00,31.0,22.0,-100.00,NE,50,6.0,16.0,68,0.00,,,0.04,0.000000,,2013-02-01 05:52:00,
2013-02-01 01:02:00,31.0,22.0,-100.00,NE,50,6.0,16.0,68,0.00,,,0.04,0.000000,,2013-02-01 06:02:00,
2013-02-01 01:11:00,30.0,24.0,-100.00,NE,55,5.0,20.0,79,0.00,,,0.02,0.000000,,2013-02-01 06:11:00,
2013-02-01 01:32:00,30.0,24.0,-100.00,NE,55,5.0,20.0,79,0.00,,,0.02,0.000000,,2013-02-01 06:32:00,
2013-02-01 01:42:00,30.0,24.0,-100.00,NE,55,5.0,20.0,79,0.00,,,0.02,0.000000,,2013-02-01 06:42:00,
2013-02-01 01:52:00,30.0,24.0,-100.00,NE,55,5.0,20.0,79,0.00,,,0.02,0.000000,,2013-02-01 06:52:00,
2013-02-01 02:02:00,30.0,24.0,-100.00,NE,55,5.0,20.0,79,0.00,,,0.02,0.000000,,2013-02-01 07:02:00,
2013-02-01 02:11:00,29.0,27.0,-100.00,ENE,76,5.0,15.0,93,0.00,,,0.02,0.000000,,2013-02-01 07:11:00,
2013-02-01 02:32:00,29.0,27.0,-100.00,ENE,76,5.0,15.0,93,0.00,,,0.02,0.000000,,2013-02-01 07:32:00,
2013-02-01 02:42:00,29.0,27.0,-100.00,ENE,76,5.0,15.0,93,0.00,,,0.02,0.000000,,2013-02-01 07:42:00,
2013-02-01 02:52:00,29.0,27.0,-100.00,ENE,76,5.0,15.0,93,0.00,,,0.02,0.000000,,2013-02-01 07:52:00,
2013-02-01 03:01:00,29.0,27.0,-100.00,ENE,76,5.0,15.0,93,0.00,,,0.02,0.000000,,2013-02-01 08:01:00,
2013-02-01 03:11:00,20.0,18.0,-100.00,East,92,5.0,17.0,91,0.00,,,0.02,0.000000,,2013-02-01 08:11:00,
2013-02-01 03:32:00,20.0,18.0,-100.00,East,92,5.0,17.0,91,0.00,,,0.02,0.000000,,2013-02-01 08:32:00,
2013-02-01 04:02:00,20.0,18.0,-100.00,East,92,5.0,17.0,91,0.00,,,0.02,0.000000,,2013-02-01 09:02:00,
2013-02-01 04:11:00,18.0,15.0,-100.00,East,89,7.0,20.0,86,0.00,,,0.02,0.000000,,2013-02-01 09:11:00,
2013-02-01 04:32:00,18.0,15.0,-100.00,East,89,7.0,20.0,86,0.00,,,0.02,0.000000,,2013-02-01 09:32:00,
2013-02-01 04:42:00,18.0,15.0,-100.00,East,89,7.0,20.0,86,0.00,,,0.02,0.000000,,2013-02-01 09:42:00,
2013-02-01 04:52:00,18.0,15.0,-100.00,East,89,7.0,20.0,86,0.00,,,0.02,0.000000,,2013-02-01 09:52:00,
2013-02-01 05:01:00,18.0,15.0,-100.00,East,89,7.0,20.0,86,0.00,,,0.02,0.000000,,2013-02-01 10:01:00,
2013-02-01 05:11:00,15.0,11.0,-100.00,East,98,5.0,18.0,82,0.00,,,0.02,0.000000,,2013-02-01 10:11:00,
2013-02-01 05:32:00,15.0,11.0,-100.00,East,98,5.0,18.0,82,0.00,,,0.02,0.000000,,2013-02-01 10:32:00,
2013-02-01 05:43:00,15.0,11.0,-100.00,East,98,5.0,18.0,82,0.00,,,0.02,0.000000,,2013-02-01 10:43:00,
2013-02-01 05:53:00,15.0,11.0,-100.00,East,98,5.0,18.0,82,0.00,,,0.02,0.000000,,2013-02-01 10:53:00,
2013-02-01 06:02:00,15.0,11.0,-100.00,East,98,5.0,18.0,82,0.00,,,0.02,0.000000,,2013-02-01 11:02:00,
2013-02-01 06:11:00,11.0,5.0,-100.00,East,91,6.0,21.0,75,0.00,,,0.02,0.000000,,2013-02-01 11:11:00,
2013-02-01 06:32:00,11.0,5.0,-100.00,East,91,6.0,21.0,75,0.00,,,0.02,0.000000,,2013-02-01 11:32:00,
2013-02-01 06:42:00,11.0,5.0,-100.00,East,91,6.0,21.0,75,0.00,,,0.02,0.000000,,2013-02-01 11:42:00,
2013-02-01 06:53:00,11.0,5.0,-100.00,East,91,6.0,21.0,75,0.00,,,0.02,0.000000,,2013-02-01 11:53:00,
2013-02-01 07:03:00,11.0,5.0,-100.00,East,91,6.0,21.0,75,0.00,,,0.02,0.000000,,2013-02-01 12:03:00,
2013-02-01 07:11:00,9.0,3.0,-100.00,East,85,8.0,16.0,77,0.00,,,0.02,0.000000,,2013-02-01 12:11:00,
2013-02-01 07:32:00,9.0,3.0,-100.00,East,85,8.0,16.0,77,0.00,,,0.02,0.000000,,2013-02-01 12:32:00,
2013-02-01 07:42:00,9.0,3.0,-100.00,East,85,8.0,16.0,77,0.00,,,0.02,0.000000,,2013-02-01 12:42:00,
2013-02-01 07:52:00,9.0,3.0,-100.00,East,85,8.0,16.0,77,0.00,,,0.02,0.000000,,2013-02-01 12:52:00,
2013-02-01 08:02:00,9.0,3.0,-100.00,East,85,8.0,16.0,77,0.00,,,0.02,0.000000,,2013-02-01 13:02:00,
2013-02-01 08:11:00,8.0,-1.0,-100.00,ESE,104,5.0,19.0,67,0.00,,,0.02,31.000000,,2013-02-01 13:11:00,
2013-02-01 08:33:00,8.0,-1.0,-100.00,ESE,104,5.0,19.0,67,0.00,,,0.02,31.000000,,2013-02-01 13:33:00,
2013-02-01 08:43:00,8.0,-1.0,-100.00,ESE,104,5.0,19.0,67,0.00,,,0.02,31.000000,,2013-02-01 13:43:00,
2013-02-01 08:53:00,8.0,-1.0,-100.00,ESE,104,5.0,19.0,67,0.00,,,0.02,31.000000,,2013-02-01 13:53:00,
2013-02-01 09:03:00,8.0,-1.0,-100.00,ESE,104,5.0,19.0,67,0.00,,,0.02,31.000000,,2013-02-01 14:03:00,
2013-02-01 09:11:00,12.0,2.0,-100.00,ENE,61,4.0,11.0,62,0.00,,,0.02,211.000000,,2013-02-01 14:11:00,
2013-02-01 09:32:00,12.0,2.0,-100.00,ENE,61,4.0,11.0,62,0.00,,,0.02,211.000000,,2013-02-01 14:32:00,
2013-02-01 09:42:00,12.0,2.0,-100.00,ENE,61,4.0,11.0,62,0.00,,,0.02,211.000000,,2013-02-01 14:42:00,
2013-02-01 09:53:00,12.0,2.0,-100.00,ENE,61,4.0,11.0,62,0.00,,,0.02,211.000000,,2013-02-01 14:53:00,
2013-02-01 10:03:00,12.0,2.0,-100.00,ENE,61,4.0,11.0,62,0.00,,,0.02,211.000000,,2013-02-01 15:03:00,
2013-02-01 10:11:00,17.0,3.0,-100.00,East,83,5.0,12.0,54,0.00,,,0.02,593.000000,,2013-02-01 15:11:00,
2013-02-01 10:33:00,17.0,3.0,-100.00,East,83,5.0,12.0,54,0.00,,,0.02,593.000000,,2013-02-01 15:33:00,
2013-02-01 10:42:00,17.0,3.0,-100.00,East,83,5.0,12.0,54,0.00,,,0.02,593.000000,,2013-02-01 15:42:00,
2013-02-01 10:52:00,17.0,3.0,-100.00,East,83,5.0,12.0,54,0.00,,,0.02,593.000000,,2013-02-01 15:52:00,
2013-02-01 11:03:00,17.0,3.0,-100.00,East,83,5.0,12.0,54,0.00,,,0.02,593.000000,,2013-02-01 16:03:00,
2013-02-01 11:11:00,18.0,3.0,-100.00,ENE,65,5.0,11.0,51,0.02,,,0.04,723.000000,,2013-02-01 16:11:00,
2013-02-01 11:33:00,18.0,3.0,-100.00,ENE,65,5.0,11.0,51,0.02,,,0.04,723.000000,,2013-02-01 16:33:00,
2013-02-01 11:43:00,18.0,3.0,-100.00,ENE,65,5.0,11.0,51,0.02,,,0.04,723.000000,,2013-02-01 16:43:00,
2013-02-01 11:53:00,18.0,3.0,-100.00,ENE,65,5.0,11.0,51,0.02,,,0.04,723.000000,,2013-02-01 16:53:00,
2013-02-01 12:03:00,18.0,3.0,-100.00,ENE,65,5.0,11.0,51,0.02,,,0.04,723.000000,,2013-02-01 17:03:00,
2013-02-01 12:11:00,18.0,1.0,-100.00,East,88,6.0,11.0,46,0.03,,,0.07,675.000000,,2013-02-01 17:11:00,
2013-02-01 12:32:00,18.0,1.0,-100.00,East,88,6.0,11.0,46,0.03,,,0.07,675.000000,,2013-02-01 17:32:00,
2013-02-01 12:42:00,18.0,1.0,-100.00,East,88,6.0,11.0,46,0.03,,,0.07,675.000000,,2013-02-01 17:42:00,
2013-02-01 12:53:00,18.0,1.0,-100.00,East,88,6.0,11.0,46,0.03,,,0.07,675.000000,,2013-02-01 17:53:00,
2013-02-01 13:03:00,18.0,1.0,-100.00,East,88,6.0,11.0,46,0.03,,,0.07,675.000000,,2013-02-01 18:03:00,
2013-02-01 13:11:00,23.0,3.0,-100.00,East,92,5.0,11.0,42,0.01,,,0.08,764.000000,,2013-02-01 18:11:00,
2013-02-01 13:33:00,23.0,3.0,-100.00,East,92,5.0,11.0,42,0.01,,,0.08,764.000000,,2013-02-01 18:33:00,
2013-02-01 13:42:00,23.0,3.0,-100.00,East,92,5.0,11.0,42,0.01,,,0.08,764.000000,,2013-02-01 18:42:00,
2013-02-01 13:53:00,23.0,3.0,-100.00,East,92,5.0,11.0,42,0.01,,,0.08,764.000000,,2013-02-01 18:53:00,
2013-02-01 14:03:00,23.0,3.0,-100.00,East,92,5.0,11.0,42,0.01,,,0.08,764.000000,,2013-02-01 19:03:00,
2013-02-01 14:11:00,25.0,5.0,-100.00,ENE,68,4.0,12.0,41,0.01,,,-99.99,820.000000,,2013-02-01 19:11:00,
2013-02-01 14:42:00,25.0,5.0,-100.00,ENE,68,4.0,12.0,41,0.01,,,-99.99,820.000000,,2013-02-01 19:42:00,
2013-02-01 14:52:00,25.0,5.0,-100.00,ENE,68,4.0,12.0,41,0.01,,,-99.99,820.000000,,2013-02-01 19:52:00,
2013-02-01 15:02:00,25.0,5.0,-100.00,ENE,68,4.0,12.0,41,0.01,,,-99.99,820.000000,,2013-02-01 20:02:00,
2013-02-01 15:11:00,22.0,2.0,-100.00,ESE,114,4.0,10.0,42,0.00,,,-99.99,609.000000,,2013-02-01 20:11:00,
2013-02-01 15:32:00,22.0,2.0,-100.00,ESE,114,4.0,10.0,42,0.00,,,-99.99,609.000000,,2013-02-01 20:32:00,
2013-02-01 15:42:00,22.0,2.0,-100.00,ESE,114,4.0,10.0,42,0.00,,,-99.99,609.000000,,2013-02-01 20:42:00,
2013-02-01 15:52:00,22.0,2.0,-100.00,ESE,114,4.0,10.0,42,0.00,,,-99.99,609.000000,,2013-02-01 20:52:00,
2013-02-01 16:02:00,22.0,2.0,-100.00,ESE,114,4.0,10.0,42,0.00,,,-99.99,609.000000,,2013-02-01 21:02:00,
2013-02-01 16:11:00,21.0,1.0,-100.00,ESE,110,4.0,11.0,41,0.00,,,0.07,367.000000,,2013-02-01 21:11:00,
2013-02-01 16:32:00,21.0,1.0,-100.00,ESE,110,4.0,11.0,41,0.00,,,0.07,367.000000,,2013-02-01 21:32:00,
2013-02-01 16:42:00,21.0,1.0,-100.00,ESE,110,4.0,11.0,41,0.00,,,0.07,367.000000,,2013-02-01 21:42:00,
2013-02-01 16:53:00,21.0,1.0,-100.00,ESE,110,4.0,11.0,41,0.00,,,0.07,367.000000,,2013-02-01 21:53:00,
2013-02-01 17:03:00,21.0,1.0,-100.00,ESE,110,4.0,11.0,41,0.00,,,0.07,367.000000,,2013-02-01 22:03:00,
2013-02-01 17:11:00,18.0,0.0,-100.00,East,93,3.0,10.0,45,0.00,,,0.07,55.000000,,2013-02-01 22:11:00,
2013-02-01 17:32:00,18.0,0.0,-100.00,East,93,3.0,10.0,45,0.00,,,0.07,55.000000,,2013-02-01 22:32:00,
2013-02-01 17:42:00,18.0,0.0,-100.00,East,93,3.0,10.0,45,0.00,,,0.07,55.000000,,2013-02-01 22:42:00,
2013-02-01 17:52:00,18.0,0.0,-100.00,East,93,3.0,10.0,45,0.00,,,0.07,55.000000,,2013-02-01 22:52:00,
2013-02-01 18:02:00,18.0,0.0,-100.00,East,93,3.0,10.0,45,0.00,,,0.07,55.000000,,2013-02-01 23:02:00,
2013-02-01 18:11:00,16.0,1.0,-100.00,ENE,71,1.0,7.0,51,0.00,,,0.07,12.000000,,2013-02-01 23:11:00,
2013-02-01 18:32:00,16.0,1.0,-100.00,ENE,71,1.0,7.0,51,0.00,,,0.07,12.000000,,2013-02-01 23:32:00,
2013-02-01 18:42:00,16.0,1.0,-100.00,ENE,71,1.0,7.0,51,0.00,,,0.07,12.000000,,2013-02-01 23:42:00,
2013-02-01 18:52:00,16.0,1.0,-100.00,ENE,71,1.0,7.0,51,0.00,,,0.07,12.000000,,2013-02-01 23:52:00,
2013-02-01 19:02:00,16.0,1.0,-100.00,ENE,71,1.0,7.0,51,0.00,,,0.07,12.000000,,2013-02-02 00:02:00,
2013-02-01 19:11:00,14.0,2.0,-100.00,NNW,340,0.0,3.0,59,0.00,,,0.07,0.000000,,2013-02-02 00:11:00,
2013-02-01 19:32:00,14.0,2.0,-100.00,NNW,340,0.0,3.0,59,0.00,,,0.07,0.000000,,2013-02-02 00:32:00,
2013-02-01 19:42:00,14.0,2.0,-100.00,NNW,340,0.0,3.0,59,0.00,,,0.07,0.000000,,2013-02-02 00:42:00,
2013-02-01 19:52:00,14.0,2.0,-100.00,NNW,340,0.0,3.0,59,0.00,,,0.07,0.000000,,2013-02-02 00:52:00,
2013-02-01 20:02:00,14.0,2.0,-100.00,NNW,340,0.0,3.0,59,0.00,,,0.07,0.000000,,2013-02-02 01:02:00,
2013-02-01 20:11:00,12.0,3.0,-100.00,NNW,328,1.0,2.0,66,0.00,,,0.07,0.000000,,2013-02-02 01:11:00,
2013-02-01 20:32:00,12.0,3.0,-100.00,NNW,328,1.0,2.0,66,0.00,,,0.07,0.000000,,2013-02-02 01:32:00,
2013-02-01 20:42:00,12.0,3.0,-100.00,NNW,328,1.0,2.0,66,0.00,,,0.07,0.000000,,2013-02-02 01:42:00,
2013-02-01 20:52:00,12.0,3.0,-100.00,NNW,328,1.0,2.0,66,0.00,,,0.07,0.000000,,2013-02-02 01:52:00,
2013-02-01 21:01:00,12.0,3.0,-100.00,NNW,328,1.0,2.0,66,0.00,,,0.07,0.000000,,2013-02-02 02:01:00,
2013-02-01 21:11:00,12.0,5.0,-100.00,NW,324,0.0,0.0,72,0.00,,,0.07,0.000000,,2013-02-02 02:11:00,
2013-02-01 21:42:00,12.0,5.0,-100.00,NW,324,0.0,0.0,72,0.00,,,0.07,0.000000,,2013-02-02 02:42:00,
2013-02-01 21:52:00,12.0,5.0,-100.00,NW,324,0.0,0.0,72,0.00,,,0.07,0.000000,,2013-02-02 02:52:00,
2013-02-01 22:02:00,12.0,5.0,-100.00,NW,324,0.0,0.0,72,0.00,,,0.07,0.000000,,2013-02-02 03:02:00,
2013-02-01 22:11:00,11.0,5.0,-100.00,East,95,1.0,3.0,76,0.00,,,0.07,0.000000,,2013-02-02 03:11:00,
2013-02-01 22:42:00,11.0,5.0,-100.00,East,95,1.0,3.0,76,0.00,,,0.07,0.000000,,2013-02-02 03:42:00,
2013-02-01 22:52:00,11.0,5.0,-100.00,East,95,1.0,3.0,76,0.00,,,0.07,0.000000,,2013-02-02 03:52:00,
2013-02-01 23:02:00,11.0,5.0,-100.00,East,95,1.0,3.0,76,0.00,,,0.07,0.000000,,2013-02-02 04:02:00,
2013-02-01 23:11:00,11.0,6.0,-100.00,SE,143,1.0,3.0,78,0.00,,,0.07,0.000000,,2013-02-02 04:11:00,
2013-02-01 23:33:00,11.0,6.0,-100.00,SE,143,1.0,3.0,78,0.00,,,0.07,0.000000,,2013-02-02 04:33:00,
2013-02-01 23:42:00,11.0,6.0,-100.00,SE,143,1.0,3.0,78,0.00,,,0.07,0.000000,,2013-02-02 04:42:00,
2013-02-01 23:52:00,11.0,6.0,-100.00,SE,143,1.0,3.0,78,0.00,,,0.07,0.000000,,2013-02-02 04:52:00,